| time (UTC) | temp F | wind direction | speed knots | gust knots | rain 1hr in | rain 24hr in | rain mn in | humidity % | barometer mb |
| 20260502151804 | 66 | 166 | 9.6 | 14.8 | 0.00 | 0.00 | 0.00 | 62 | 1016.0 |
| 20260502150804 | 65 | 119 | 7.0 | 13.0 | 0.00 | 0.00 | 0.00 | 65 | 1015.8 |
| 20260502123804 | 65 | 153 | 8.7 | 13.9 | 0.00 | 0.00 | 0.00 | 63 | 1017.9 |
| 20260502122804 | 64 | 153 | 6.1 | 14.8 | 0.00 | 0.00 | 0.00 | 67 | 1018.4 |
| 20260502122306 | 64 | 128 | 8.7 | 15.6 | 0.00 | 0.00 | 0.00 | 66 | 1018.5 |
| 20260502121804 | 65 | 162 | 7.8 | 13.0 | 0.00 | 0.00 | 0.00 | 64 | 1018.2 |
| 20260502121303 | 65 | 150 | 7.0 | 11.3 | 0.00 | 0.00 | 0.00 | 64 | 1018.3 |
| 20260502120803 | 64 | 169 | 7.8 | 13.0 | 0.00 | 0.00 | 0.00 | 66 | 1018.5 |
| 20260502120304 | 64 | 130 | 7.8 | 13.0 | 0.00 | 0.00 | 0.00 | 67 | 1018.6 |
| 20260502115804 | 64 | 148 | 7.8 | 13.9 | 0.00 | 0.00 | 0.00 | 68 | 1018.7 |
| 20260502114804 | 65 | 136 | 6.1 | 13.9 | 0.00 | 0.00 | 0.00 | 67 | 1018.4 |
| 20260502114304 | 65 | 150 | 7.8 | 14.8 | 0.00 | 0.00 | 0.00 | 66 | 1018.6 |
| 20260502113804 | 64 | 107 | 6.1 | 12.2 | 0.00 | 0.00 | 0.00 | 66 | 1018.8 |
| 20260502113304 | 64 | 136 | 6.1 | 13.0 | 0.00 | 0.00 | 0.00 | 67 | 1018.8 |
| 20260502112803 | 64 | 121 | 5.2 | 12.2 | 0.00 | 0.00 | 0.00 | 67 | 1018.7 |
| 20260502112305 | 64 | 140 | 5.2 | 11.3 | 0.00 | 0.00 | 0.00 | 68 | 1019.0 |
| 20260502111804 | 63 | 162 | 5.2 | 11.3 | 0.00 | 0.00 | 0.00 | 69 | 1019.1 |
| 20260502111304 | 63 | 149 | 7.8 | 13.0 | 0.00 | 0.00 | 0.00 | 69 | 1019.0 |
| 20260502110804 | 63 | 131 | 6.1 | 12.2 | 0.00 | 0.00 | 0.00 | 69 | 1019.2 |
| 20260502110304 | 63 | 150 | 6.1 | 12.2 | 0.00 | 0.00 | 0.00 | 70 | 1019.4 |
| 20260502105803 | 62 | 169 | 5.2 | 11.3 | 0.00 | 0.00 | 0.00 | 72 | 1019.6 |
| 20260502105306 | 62 | 129 | 7.0 | 11.3 | 0.00 | 0.00 | 0.00 | 72 | 1019.5 |
| 20260502104803 | 61 | 153 | 4.3 | 10.4 | 0.00 | 0.00 | 0.00 | 73 | 1019.7 |
| 20260502104304 | 61 | 134 | 6.1 | 13.0 | 0.00 | 0.00 | 0.00 | 73 | 1019.7 |
| 20260502103804 | 61 | 128 | 3.5 | 8.7 | 0.00 | 0.00 | 0.00 | 73 | 1019.8 |
| 20260502103304 | 62 | 133 | 5.2 | 10.4 | 0.00 | 0.00 | 0.00 | 72 | 1020.0 |
| 20260502102804 | 62 | 123 | 5.2 | 11.3 | 0.00 | 0.00 | 0.00 | 72 | 1019.9 |
| 20260502101803 | 62 | 127 | 6.1 | 12.2 | 0.00 | 0.00 | 0.00 | 72 | 1020.0 |
| 20260502100804 | 62 | 127 | 6.1 | 11.3 | 0.00 | 0.00 | 0.00 | 72 | 1019.9 |
| 20260502100304 | 62 | 139 | 6.1 | 13.0 | 0.00 | 0.00 | 0.00 | 71 | 1019.6 |
| 20260502091304 | 60 | 128 | 5.2 | 12.2 | 0.00 | 0.00 | 0.00 | 76 | 1019.7 |
| 20260502090804 | 60 | 127 | 7.8 | 14.8 | 0.00 | 0.00 | 0.00 | 76 | 1019.5 |
| 20260502090303 | 60 | 119 | 7.8 | 13.9 | 0.00 | 0.00 | 0.00 | 77 | 1019.7 |
| 20260502071304 | 57 | 142 | 4.3 | 10.4 | 0.00 | 0.00 | 0.00 | 83 | 1020.3 |
| 20260502070803 | 57 | 116 | 4.3 | 8.7 | 0.00 | 0.00 | 0.00 | 84 | 1020.2 |
| 20260502070303 | 57 | 144 | 1.7 | 8.7 | 0.00 | 0.00 | 0.00 | 84 | 1020.3 |
| 20260502065804 | 57 | 126 | 4.3 | 8.7 | 0.00 | 0.00 | 0.00 | 84 | 1020.2 |
| 20260502065306 | 57 | 162 | 4.3 | 8.7 | 0.00 | 0.00 | 0.00 | 85 | 1020.1 |
| 20260502064804 | 57 | 113 | 2.6 | 6.1 | 0.00 | 0.00 | 0.00 | 85 | 1020.0 |
| 20260502063804 | 56 | 146 | 4.3 | 10.4 | 0.00 | 0.00 | 0.00 | 86 | 1020.0 |
| 20260502063304 | 56 | 113 | 5.2 | 10.4 | 0.00 | 0.00 | 0.00 | 86 | 1020.1 |
| 20260502062803 | 56 | 90 | 2.6 | 8.7 | 0.00 | 0.00 | 0.00 | 86 | 1019.9 |
| 20260502061804 | 56 | 143 | 3.5 | 7.8 | 0.00 | 0.00 | 0.00 | 87 | 1019.6 |
| 20260502061303 | 56 | 89 | 2.6 | 10.4 | 0.00 | 0.00 | 0.00 | 87 | 1019.7 |
| 20260502060804 | 55 | 118 | 3.5 | 8.7 | 0.00 | 0.00 | 0.00 | 88 | 1019.7 |
| 20260502060304 | 55 | 84 | 2.6 | 7.0 | 0.00 | 0.00 | 0.00 | 88 | 1019.6 |
| 20260502055804 | 55 | 85 | 3.5 | 7.0 | 0.00 | 0.00 | 0.00 | 88 | 1019.4 |
| 20260502055306 | 55 | 106 | 3.5 | 7.0 | 0.00 | 0.00 | 0.00 | 88 | 1019.4 |
| 20260502054804 | 55 | 120 | 4.3 | 8.7 | 0.00 | 0.00 | 0.00 | 89 | 1019.6 |
| 20260502054304 | 55 | 141 | 3.5 | 10.4 | 0.00 | 0.00 | 0.00 | 89 | 1019.7 |
| 20260502053804 | 55 | 156 | 4.3 | 8.7 | 0.00 | 0.00 | 0.00 | 89 | 1019.4 |
| 20260502053304 | 55 | 175 | 2.6 | 7.8 | 0.00 | 0.00 | 0.00 | 89 | 1019.2 |
| 20260502052803 | 55 | 153 | 2.6 | 8.7 | 0.00 | 0.00 | 0.00 | 89 | 1019.5 |
| 20260502052306 | 55 | 103 | 4.3 | 10.4 | 0.00 | 0.00 | 0.00 | 90 | 1019.6 |
| 20260502051804 | 55 | 138 | 4.3 | 11.3 | 0.00 | 0.00 | 0.00 | 90 | 1019.3 |
| 20260502051303 | 55 | 124 | 4.3 | 8.7 | 0.00 | 0.00 | 0.00 | 90 | 1019.1 |
| 20260502050304 | 55 | 66 | 4.3 | 8.7 | 0.00 | 0.00 | 0.00 | 90 | 1019.0 |
| 20260502045804 | 55 | 160 | 4.3 | 11.3 | 0.00 | 0.00 | 0.00 | 90 | 1018.9 |
| 20260502044803 | 55 | 101 | 4.3 | 11.3 | 0.00 | 0.00 | 0.00 | 90 | 1018.8 |
| 20260502044304 | 55 | 90 | 4.3 | 11.3 | 0.00 | 0.00 | 0.00 | 90 | 1019.0 |
| 20260502043804 | 55 | 90 | 5.2 | 10.4 | 0.00 | 0.00 | 0.00 | 90 | 1018.9 |
| 20260502043303 | 55 | 106 | 4.3 | 12.2 | 0.00 | 0.00 | 0.00 | 91 | 1018.7 |
| 20260502042306 | 55 | 122 | 5.2 | 11.3 | 0.00 | 0.00 | 0.00 | 90 | 1019.0 |
| 20260502041804 | 55 | 150 | 3.5 | 10.4 | 0.00 | 0.00 | 0.00 | 90 | 1018.8 |
| 20260502041303 | 55 | 138 | 4.3 | 12.2 | 0.00 | 0.00 | 0.00 | 90 | 1018.6 |
| 20260502040804 | 55 | 153 | 5.2 | 13.9 | 0.00 | 0.00 | 0.00 | 90 | 1018.8 |
| 20260502040304 | 55 | 147 | 5.2 | 8.7 | 0.00 | 0.00 | 0.00 | 90 | 1018.8 |
| 20260502035803 | 55 | 123 | 6.1 | 10.4 | 0.00 | 0.00 | 0.00 | 90 | 1018.8 |
| 20260502035306 | 55 | 111 | 5.2 | 13.9 | 0.00 | 0.00 | 0.00 | 90 | 1018.9 |
| 20260502033304 | 55 | 88 | 5.2 | 10.4 | 0.00 | 0.00 | 0.00 | 90 | 1019.2 |
| 20260502032804 | 55 | 150 | 4.3 | 8.7 | 0.00 | 0.00 | 0.00 | 90 | 1019.2 |
| 20260502032306 | 55 | 110 | 5.2 | 10.4 | 0.00 | 0.00 | 0.00 | 90 | 1019.3 |
| 20260502031804 | 55 | 127 | 4.3 | 10.4 | 0.00 | 0.00 | 0.00 | 90 | 1019.4 |
| 20260502031304 | 55 | 101 | 6.1 | 14.8 | 0.00 | 0.00 | 0.00 | 90 | 1019.4 |
| 20260502030804 | 55 | 116 | 4.3 | 10.4 | 0.00 | 0.00 | 0.00 | 90 | 1019.3 |
| 20260502030304 | 55 | 174 | 5.2 | 10.4 | 0.00 | 0.00 | 0.00 | 90 | 1019.3 |
| 20260502025804 | 55 | 164 | 4.3 | 10.4 | 0.00 | 0.00 | 0.00 | 90 | 1019.3 |
| 20260502025306 | 55 | 95 | 5.2 | 12.2 | 0.00 | 0.00 | 0.00 | 90 | 1019.4 |
| 20260502024804 | 55 | 98 | 5.2 | 13.0 | 0.00 | 0.00 | 0.00 | 90 | 1019.4 |
| 20260502024304 | 55 | 119 | 5.2 | 10.4 | 0.00 | 0.00 | 0.00 | 90 | 1019.2 |
| 20260502023804 | 55 | 94 | 4.3 | 11.3 | 0.00 | 0.00 | 0.00 | 90 | 1019.1 |
| 20260502021304 | 55 | 126 | 5.2 | 10.4 | 0.00 | 0.00 | 0.00 | 90 | 1019.9 |
| 20260502020804 | 55 | 130 | 6.1 | 13.9 | 0.00 | 0.00 | 0.00 | 90 | 1019.7 |
| 20260502020304 | 55 | 83 | 6.1 | 11.3 | 0.00 | 0.00 | 0.00 | 90 | 1019.6 |
| 20260502015804 | 55 | 125 | 5.2 | 11.3 | 0.00 | 0.00 | 0.00 | 90 | 1019.6 |
| 20260502015305 | 55 | 101 | 5.2 | 13.9 | 0.00 | 0.00 | 0.00 | 89 | 1019.6 |
| 20260502014804 | 55 | 114 | 6.1 | 12.2 | 0.00 | 0.00 | 0.00 | 89 | 1019.6 |
| 20260502014303 | 55 | 97 | 6.1 | 13.0 | 0.00 | 0.00 | 0.00 | 89 | 1019.6 |
| 20260502013804 | 55 | 120 | 6.1 | 11.3 | 0.00 | 0.00 | 0.00 | 88 | 1019.5 |
| 20260502012804 | 56 | 98 | 5.2 | 11.3 | 0.00 | 0.00 | 0.00 | 88 | 1019.6 |
| 20260502012306 | 56 | 107 | 6.1 | 12.2 | 0.00 | 0.00 | 0.00 | 88 | 1019.6 |
| 20260502010304 | 56 | 137 | 5.2 | 12.2 | 0.00 | 0.00 | 0.00 | 88 | 1019.5 |
| 20260502005803 | 56 | 146 | 5.2 | 12.2 | 0.00 | 0.00 | 0.00 | 88 | 1019.4 |
| 20260502005306 | 56 | 138 | 5.2 | 12.2 | 0.00 | 0.00 | 0.00 | 87 | 1019.4 |
| 20260502004804 | 56 | 111 | 4.3 | 11.3 | 0.00 | 0.00 | 0.00 | 87 | 1019.6 |
| 20260502004303 | 56 | 165 | 4.3 | 11.3 | 0.00 | 0.00 | 0.00 | 87 | 1019.7 |
| 20260502003804 | 56 | 160 | 5.2 | 10.4 | 0.00 | 0.00 | 0.00 | 87 | 1019.8 |
| 20260502003304 | 56 | 113 | 4.3 | 12.2 | 0.00 | 0.00 | 0.00 | 88 | 1019.9 |
| 20260502002803 | 56 | 150 | 6.1 | 12.2 | 0.00 | 0.00 | 0.00 | 88 | 1020.1 |
| 20260502002305 | 56 | 99 | 6.1 | 10.4 | 0.00 | 0.00 | 0.00 | 88 | 1019.9 |
| 20260502001804 | 56 | 121 | 5.2 | 11.3 | 0.00 | 0.00 | 0.00 | 88 | 1020.0 |
| 20260502001304 | 56 | 126 | 6.1 | 12.2 | 0.00 | 0.00 | 0.00 | 88 | 1020.0 |
| 20260502000804 | 56 | 155 | 4.3 | 11.3 | 0.00 | 0.00 | 0.00 | 88 | 1020.2 |
| 20260502000304 | 56 | 122 | 5.2 | 8.7 | 0.00 | 0.00 | 0.00 | 88 | 1020.3 |
| 20260501235803 | 56 | 133 | 5.2 | 10.4 | 0.00 | 0.00 | 0.00 | 88 | 1020.3 |
| 20260501235305 | 56 | 113 | 5.2 | 12.2 | 0.00 | 0.00 | 0.00 | 88 | 1020.4 |
| 20260501234804 | 56 | 98 | 4.3 | 10.4 | 0.00 | 0.00 | 0.00 | 88 | 1020.5 |
| 20260501234304 | 56 | 136 | 5.2 | 8.7 | 0.00 | 0.00 | 0.00 | 88 | 1020.5 |
| 20260501233803 | 56 | 91 | 5.2 | 11.3 | 0.00 | 0.00 | 0.00 | 88 | 1020.5 |
| 20260501233304 | 56 | 124 | 4.3 | 12.2 | 0.00 | 0.00 | 0.00 | 88 | 1020.6 |
| 20260501232804 | 56 | 134 | 5.2 | 10.4 | 0.00 | 0.00 | 0.00 | 88 | 1020.8 |
| 20260501231803 | 56 | 97 | 5.2 | 10.4 | 0.00 | 0.00 | 0.00 | 88 | 1020.7 |
| 20260501231303 | 56 | 129 | 5.2 | 13.0 | 0.00 | 0.00 | 0.00 | 88 | 1020.7 |
| 20260501230804 | 56 | 88 | 6.1 | 11.3 | 0.00 | 0.00 | 0.00 | 88 | 1020.7 |
| 20260501230304 | 56 | 67 | 6.1 | 11.3 | 0.00 | 0.00 | 0.00 | 88 | 1020.5 |
| 20260501225804 | 56 | 92 | 4.3 | 11.3 | 0.00 | 0.00 | 0.00 | 88 | 1020.7 |
| 20260501225306 | 56 | 82 | 4.3 | 10.4 | 0.00 | 0.00 | 0.00 | 88 | 1020.7 |
| 20260501224303 | 56 | 105 | 5.2 | 11.3 | 0.00 | 0.00 | 0.00 | 88 | 1020.8 |
| 20260501223804 | 56 | 95 | 5.2 | 12.2 | 0.00 | 0.00 | 0.00 | 88 | 1020.8 |
| 20260501223303 | 56 | 121 | 6.1 | 13.9 | 0.00 | 0.00 | 0.00 | 88 | 1021.0 |
| 20260501222803 | 56 | 101 | 5.2 | 12.2 | 0.00 | 0.00 | 0.00 | 88 | 1020.8 |
| 20260501221804 | 56 | 82 | 5.2 | 12.2 | 0.00 | 0.00 | 0.00 | 87 | 1020.9 |
| 20260501221304 | 56 | 76 | 6.1 | 13.0 | 0.00 | 0.00 | 0.00 | 87 | 1020.9 |
| 20260501220804 | 56 | 90 | 5.2 | 12.2 | 0.00 | 0.00 | 0.00 | 87 | 1020.8 |
| 20260501220304 | 56 | 145 | 6.1 | 12.2 | 0.00 | 0.00 | 0.00 | 87 | 1020.9 |
| 20260501215305 | 56 | 144 | 7.0 | 13.9 | 0.00 | 0.00 | 0.00 | 87 | 1021.0 |
| 20260501214803 | 56 | 51 | 5.2 | 12.2 | 0.00 | 0.00 | 0.00 | 87 | 1021.2 |
| 20260501214303 | 56 | 140 | 7.0 | 11.3 | 0.00 | 0.00 | 0.00 | 87 | 1021.0 |
| 20260501213304 | 56 | 70 | 5.2 | 13.0 | 0.00 | 0.00 | 0.00 | 87 | 1021.2 |
| 20260501212804 | 56 | 87 | 7.8 | 13.9 | 0.00 | 0.00 | 0.00 | 87 | 1021.0 |
| 20260501211803 | 56 | 98 | 6.1 | 13.9 | 0.00 | 0.00 | 0.00 | 87 | 1021.2 |
| 20260501211303 | 56 | 122 | 5.2 | 11.3 | 0.00 | 0.00 | 0.00 | 87 | 1021.1 |
| 20260501210804 | 56 | 120 | 5.2 | 12.2 | 0.00 | 0.00 | 0.00 | 86 | 1021.2 |
| 20260501210304 | 56 | 129 | 6.1 | 13.9 | 0.00 | 0.00 | 0.00 | 86 | 1021.2 |
| 20260501205803 | 56 | 115 | 6.1 | 12.2 | 0.00 | 0.00 | 0.00 | 86 | 1021.2 |
| 20260501204304 | 57 | 117 | 5.2 | 13.0 | 0.00 | 0.00 | 0.00 | 85 | 1021.0 |
| 20260501203804 | 57 | 119 | 5.2 | 13.0 | 0.00 | 0.00 | 0.00 | 85 | 1021.1 |
| 20260501203304 | 57 | 76 | 5.2 | 12.2 | 0.00 | 0.00 | 0.00 | 84 | 1021.1 |
| 20260501202306 | 57 | 91 | 5.2 | 11.3 | 0.00 | 0.00 | 0.00 | 84 | 1021.0 |
| 20260501201803 | 57 | 72 | 7.0 | 13.0 | 0.00 | 0.00 | 0.00 | 85 | 1020.9 |
| 20260501201304 | 57 | 167 | 5.2 | 12.2 | 0.00 | 0.00 | 0.00 | 85 | 1020.7 |
| 20260501200804 | 57 | 90 | 5.2 | 11.3 | 0.00 | 0.00 | 0.00 | 85 | 1020.9 |
| 20260501200304 | 58 | 116 | 7.0 | 15.6 | 0.00 | 0.00 | 0.00 | 85 | 1020.9 |
| 20260501195305 | 58 | 137 | 6.1 | 14.8 | 0.00 | 0.00 | 0.00 | 85 | 1020.7 |
| 20260501194804 | 58 | 98 | 7.8 | 13.9 | 0.00 | 0.00 | 0.00 | 85 | 1020.6 |
| 20260501194304 | 58 | 83 | 6.1 | 13.9 | 0.00 | 0.00 | 0.00 | 85 | 1020.7 |
| 20260501193804 | 58 | 150 | 5.2 | 12.2 | 0.00 | 0.00 | 0.00 | 85 | 1020.8 |
| 20260501193304 | 58 | 92 | 5.2 | 11.3 | 0.00 | 0.00 | 0.00 | 84 | 1020.6 |
| 20260501192804 | 59 | 82 | 4.3 | 12.2 | 0.00 | 0.00 | 0.00 | 84 | 1020.4 |
| 20260501192306 | 59 | 95 | 5.2 | 11.3 | 0.00 | 0.00 | 0.00 | 83 | 1020.6 |
| 20260501191803 | 59 | 65 | 5.2 | 12.2 | 0.00 | 0.00 | 0.00 | 83 | 1020.4 |
| 20260501191304 | 59 | 69 | 4.3 | 12.2 | 0.00 | 0.00 | 0.00 | 82 | 1020.4 |
| 20260501190803 | 60 | 79 | 5.2 | 13.0 | 0.00 | 0.00 | 0.00 | 81 | 1020.3 |
| 20260501190304 | 60 | 95 | 4.3 | 12.2 | 0.00 | 0.00 | 0.00 | 81 | 1020.2 |
| 20260501185306 | 60 | 92 | 5.2 | 8.7 | 0.00 | 0.00 | 0.00 | 80 | 1020.2 |
| 20260501184303 | 61 | 96 | 5.2 | 10.4 | 0.00 | 0.00 | 0.00 | 79 | 1020.1 |
| 20260501183304 | 62 | 74 | 5.2 | 12.2 | 0.00 | 0.00 | 0.00 | 77 | 1019.9 |
| 20260501182804 | 62 | 0 | 6.1 | 13.9 | 0.00 | 0.00 | 0.00 | 77 | 1019.8 |
| 20260501182306 | 62 | 128 | 5.2 | 11.3 | 0.00 | 0.00 | 0.00 | 77 | 1019.5 |
| 20260501181803 | 63 | 118 | 5.2 | 13.9 | 0.00 | 0.00 | 0.00 | 76 | 1019.5 |
| 20260501181304 | 63 | 111 | 5.2 | 13.0 | 0.00 | 0.00 | 0.00 | 75 | 1019.5 |
| 20260501180803 | 63 | 77 | 6.1 | 11.3 | 0.00 | 0.00 | 0.00 | 75 | 1019.5 |
| 20260501180304 | 64 | 113 | 4.3 | 8.7 | 0.00 | 0.00 | 0.00 | 73 | 1019.2 |
| 20260501175804 | 64 | 119 | 5.2 | 11.3 | 0.00 | 0.00 | 0.00 | 72 | 1019.3 |
| 20260501175306 | 65 | 118 | 5.2 | 8.7 | 0.00 | 0.00 | 0.00 | 72 | 1019.2 |
| 20260501174304 | 65 | 98 | 6.1 | 10.4 | 0.00 | 0.00 | 0.00 | 70 | 1019.1 |
| 20260501173304 | 66 | 98 | 6.1 | 13.9 | 0.00 | 0.00 | 0.00 | 67 | 1018.9 |
| 20260501172803 | 66 | 129 | 5.2 | 11.3 | 0.00 | 0.00 | 0.00 | 66 | 1018.9 |
| 20260501172305 | 67 | 115 | 6.1 | 12.2 | 0.00 | 0.00 | 0.00 | 65 | 1019.0 |
| 20260501171804 | 66 | 142 | 5.2 | 11.3 | 0.00 | 0.00 | 0.00 | 65 | 1019.0 |
| 20260501171303 | 67 | 112 | 7.8 | 12.2 | 0.00 | 0.00 | 0.00 | 65 | 1018.8 |
| 20260501170804 | 67 | 112 | 6.1 | 11.3 | 0.00 | 0.00 | 0.00 | 64 | 1018.8 |
| 20260501170303 | 68 | 132 | 4.3 | 11.3 | 0.00 | 0.00 | 0.00 | 63 | 1018.8 |
| 20260501165804 | 68 | 110 | 5.2 | 11.3 | 0.00 | 0.00 | 0.00 | 63 | 1018.8 |
| 20260501165306 | 68 | 116 | 5.2 | 10.4 | 0.00 | 0.00 | 0.00 | 63 | 1018.6 |
| 20260501164804 | 68 | 148 | 5.2 | 12.2 | 0.00 | 0.00 | 0.00 | 62 | 1018.6 |
| 20260501163804 | 69 | 115 | 5.2 | 12.2 | 0.00 | 0.00 | 0.00 | 61 | 1018.6 |
| 20260501163304 | 69 | 90 | 4.3 | 12.2 | 0.00 | 0.00 | 0.00 | 60 | 1018.4 |
| 20260501162807 | 69 | 164 | 4.3 | 12.2 | 0.00 | 0.00 | 0.00 | 60 | 1018.7 |
| 20260501161806 | 69 | 122 | 5.2 | 12.2 | 0.00 | 0.00 | 0.00 | 59 | 1018.5 |
| 20260501160806 | 70 | 166 | 4.3 | 11.3 | 0.00 | 0.00 | 0.00 | 58 | 1018.5 |
| 20260501160306 | 70 | 110 | 5.2 | 10.4 | 0.00 | 0.00 | 0.00 | 58 | 1018.4 |
| 20260501155806 | 70 | 131 | 4.3 | 12.2 | 0.00 | 0.00 | 0.00 | 58 | 1018.5 |
| 20260501155306 | 69 | 128 | 7.0 | 13.0 | 0.00 | 0.00 | 0.00 | 58 | 1018.4 |
| 20260501154806 | 70 | 127 | 7.8 | 12.2 | 0.00 | 0.00 | 0.00 | 57 | 1018.1 |
| 20260501154306 | 69 | 132 | 7.0 | 13.0 | 0.00 | 0.00 | 0.00 | 58 | 1018.3 |
| 20260501153806 | 70 | 160 | 7.8 | 13.0 | 0.00 | 0.00 | 0.00 | 57 | 1018.2 |